Weather History for Wauseon Fulton County Airport, OH

Change the Weather History Date:

Sunday, March 30, 2014

  Actual Average (KTOL) Record (KTOL)
Temperature  
Mean Temperature 38 °F 43 °F  
Max Temperature 50 °F 53 °F 81 °F (1998)
Min Temperature 26 °F 33 °F 12 °F (1969)
Degree Days  
Heating Degree Days 27 22  
Month to date heating degree days 828  
Since 1 July heating degree days 5404  
Cooling Degree Days 0 0  
Month to date cooling degree days 0  
Year to date cooling degree days 0  
Moisture  
Dew Point 23 °F    
Average Humidity 61    
Maximum Humidity 87    
Minimum Humidity 32    
Precipitation  
Precipitation 0.00 in 0.09 in 0.80 in (1987)
Month to date precipitation 2.38  
Year to date precipitation 6.50  
Snow  
Snow 0.00 in 0.10 in - ()
Month to date snowfall 5.6  
Since 1 July snowfall 36.1  
Snow Depth -    
Sea Level Pressure  
Sea Level Pressure 30.16 in    
Wind  
Wind Speed 9 mph (NNW)    
Max Wind Speed 13 mph    
Max Gust Speed 20 mph    
Visibility 10 miles    
Events      
T = Trace of Precipitation, MM = Missing Value Source: NWS Daily Summary

Daily Weather History Graph

Daily Weather History Graph

Search for Another Location

Airport:

Trip Planner

Search our weather history database for the weather conditions in past years. The results will help you decide how hot, cold, wet, or windy it might be!

Date:

Astronomy

Mar. 30, 2014 Rise Set
Actual Time 7:22 AM EDT 7:59 PM EDT
Civil Twilight 6:54 AM EDT 8:27 PM EDT
Nautical Twilight 6:21 AM EDT 9:00 PM EDT
Astronomical Twilight 5:47 AM EDT 9:34 PM EDT
Moon 7:08 AM EDT (3/30) 8:11 PM EDT (3/30)
Length of Visible Light 13h 32m
Length of Day
12h 36m
Waning Crescent, 0% of the Moon is Illuminated
Mar 30
Waning Crescent
Mar 30
New
Apr 7
First Quarter
Apr 15
Full
Apr 22
Last Quarter

Hourly Weather History & Observations

Time (EDT) Temp. Windchill Dew Point Humidity Pressure Visibility Wind Dir Wind Speed Gust Speed Precip Events Conditions
12:15 AM 32.0 °F 22.5 °F 24.8 °F 75% 30.15 in 10.0 mi North 12.7 mph 19.6 mph N/A   Overcast
12:35 AM 32.0 °F 23.0 °F 24.8 °F 75% 30.15 in 10.0 mi North 11.5 mph - N/A   Overcast
12:55 AM 32.0 °F 23.6 °F 24.8 °F 75% 30.15 in 10.0 mi North 10.4 mph - N/A   Overcast
1:15 AM 32.0 °F 22.5 °F 24.8 °F 75% 30.15 in 10.0 mi North 12.7 mph - N/A   Overcast
1:35 AM 32.0 °F 23.6 °F 24.8 °F 75% 30.15 in 10.0 mi North 10.4 mph 16.1 mph N/A   Overcast
1:55 AM 30.2 °F 21.3 °F 24.8 °F 80% 30.15 in 10.0 mi North 10.4 mph 16.1 mph N/A   Overcast
2:15 AM 30.2 °F 21.3 °F 24.8 °F 80% 30.15 in 10.0 mi North 10.4 mph - N/A   Overcast
2:35 AM 30.2 °F 21.9 °F 24.8 °F 80% 30.15 in 10.0 mi NNW 9.2 mph - N/A   Overcast
2:55 AM 30.2 °F 21.9 °F 24.8 °F 80% 30.16 in 10.0 mi NW 9.2 mph - N/A   Overcast
3:15 AM 30.2 °F 22.6 °F 24.8 °F 80% 30.16 in 10.0 mi NW 8.1 mph - N/A   Overcast
3:35 AM 30.2 °F 22.6 °F 24.8 °F 80% 30.15 in 10.0 mi NNW 8.1 mph - N/A   Mostly Cloudy
3:55 AM 28.4 °F 20.4 °F 24.8 °F 86% 30.15 in 10.0 mi North 8.1 mph - N/A   Clear
4:15 AM 28.4 °F 20.4 °F 24.8 °F 86% 30.16 in 10.0 mi NW 8.1 mph - N/A   Clear
4:35 AM 28.4 °F 20.4 °F 24.8 °F 86% 30.16 in 10.0 mi NW 8.1 mph - N/A   Clear
4:55 AM 28.4 °F 21.2 °F 24.8 °F 86% 30.15 in 10.0 mi NNW 6.9 mph - N/A   Clear
5:15 AM 28.4 °F 21.2 °F 23.0 °F 80% 30.14 in 10.0 mi NNW 6.9 mph - N/A   Clear
5:35 AM 28.4 °F 20.4 °F 23.0 °F 80% 30.15 in 10.0 mi NNW 8.1 mph - N/A   Clear
5:55 AM 28.4 °F 19.7 °F 24.8 °F 86% 30.17 in 10.0 mi NNW 9.2 mph - N/A   Clear
6:15 AM 26.6 °F 18.2 °F 23.0 °F 86% 30.18 in 10.0 mi NW 8.1 mph 15.0 mph N/A   Clear
6:35 AM 26.6 °F 19.1 °F 23.0 °F 86% 30.18 in 10.0 mi NNW 6.9 mph - N/A   Clear
6:55 AM 26.6 °F 18.2 °F 23.0 °F 86% 30.19 in 10.0 mi NNW 8.1 mph - N/A   Clear
7:15 AM 26.6 °F 18.2 °F 23.0 °F 86% 30.20 in 10.0 mi NW 8.1 mph - N/A   Clear
7:35 AM 26.6 °F 19.1 °F 23.0 °F 86% 30.19 in 10.0 mi NNW 6.9 mph - N/A   Clear
7:55 AM 26.6 °F 20.0 °F 23.0 °F 86% 30.20 in 10.0 mi NNW 5.8 mph - N/A   Clear
8:15 AM 28.4 °F 21.2 °F 23.0 °F 80% 30.20 in 10.0 mi NNW 6.9 mph - N/A   Clear
8:35 AM 28.4 °F 19.1 °F 23.0 °F 80% 30.20 in 10.0 mi North 10.4 mph - N/A   Clear
8:55 AM 30.2 °F 21.9 °F 23.0 °F 75% 30.20 in 10.0 mi North 9.2 mph - N/A   Clear
9:15 AM 30.2 °F 20.8 °F 23.0 °F 75% 30.20 in 10.0 mi North 11.5 mph - N/A   Clear
9:35 AM 32.0 °F 24.8 °F 21.2 °F 64% 30.19 in 10.0 mi North 8.1 mph - N/A   Clear
9:55 AM 32.0 °F 23.0 °F 21.2 °F 64% 30.19 in 10.0 mi North 11.5 mph - N/A   Clear
10:15 AM 33.8 °F 25.3 °F 21.2 °F 60% 30.19 in 10.0 mi North 11.5 mph - N/A   Clear
10:35 AM 35.6 °F 28.0 °F 21.2 °F 56% 30.20 in 10.0 mi North 10.4 mph - N/A   Clear
10:55 AM 35.6 °F 28.0 °F 19.4 °F 52% 30.20 in 10.0 mi North 10.4 mph - N/A   Clear
11:15 AM 37.4 °F 30.3 °F 19.4 °F 48% 30.21 in 10.0 mi North 10.4 mph - N/A   Clear
11:35 AM 37.4 °F 30.3 °F 19.4 °F 48% 30.21 in 10.0 mi North 10.4 mph 16.1 mph N/A   Clear
11:55 AM 39.2 °F 33.0 °F 19.4 °F 45% 30.20 in 10.0 mi NW 9.2 mph - N/A   Clear
12:15 PM 39.2 °F 35.0 °F 19.4 °F 45% 30.19 in 10.0 mi Variable 5.8 mph - N/A   Clear
12:35 PM 41.0 °F 34.7 °F 19.4 °F 42% 30.18 in 10.0 mi North 10.4 mph - N/A   Clear
12:55 PM 42.8 °F 38.6 °F 21.2 °F 42% 30.18 in 10.0 mi Variable 6.9 mph 13.8 mph N/A   Clear
1:15 PM 42.8 °F 37.5 °F 21.2 °F 42% 30.18 in 10.0 mi NW 9.2 mph - N/A   Clear
1:35 PM 44.6 °F 39.7 °F 21.2 °F 39% 30.18 in 10.0 mi North 9.2 mph - N/A   Clear
1:55 PM 46.4 °F 41.9 °F 21.2 °F 37% 30.17 in 10.0 mi NNW 9.2 mph - N/A   Clear
2:15 PM 46.4 °F 41.5 °F 21.2 °F 37% 30.17 in 10.0 mi North 10.4 mph - N/A   Clear
2:35 PM 48.2 °F - 21.2 °F 34% 30.16 in 10.0 mi NNW 8.1 mph - N/A   Clear
2:55 PM 48.2 °F - 21.2 °F 34% 30.16 in 10.0 mi NW 5.8 mph 12.7 mph N/A   Clear
3:15 PM 48.2 °F - 21.2 °F 34% 30.15 in 10.0 mi WNW 10.4 mph 17.3 mph N/A   Clear
3:35 PM 48.2 °F - 23.0 °F 37% 30.15 in 10.0 mi NNW 10.4 mph 18.4 mph N/A   Clear
3:55 PM 50.0 °F - 21.2 °F 32% 30.14 in 10.0 mi NW 11.5 mph - N/A   Clear
4:15 PM 50.0 °F - 24.8 °F 37% 30.13 in 10.0 mi NW 11.5 mph - N/A   Clear
4:35 PM 50.0 °F - 23.0 °F 35% 30.13 in 10.0 mi WNW 9.2 mph - N/A   Clear
4:55 PM 50.0 °F - 23.0 °F 35% 30.12 in 10.0 mi North 6.9 mph - N/A   Clear
5:15 PM 50.0 °F - 23.0 °F 35% 30.12 in 10.0 mi NW 9.2 mph - N/A   Clear
5:35 PM 50.0 °F - 23.0 °F 35% 30.11 in 10.0 mi NW 6.9 mph 13.8 mph N/A   Clear
5:55 PM 50.0 °F - 23.0 °F 35% 30.11 in 10.0 mi WNW 5.8 mph - N/A   Clear
6:15 PM 50.0 °F - 23.0 °F 35% 30.11 in 10.0 mi NNW 6.9 mph - N/A   Clear
6:35 PM 50.0 °F - 23.0 °F 35% 30.11 in 10.0 mi North 5.8 mph - N/A   Clear
6:55 PM 50.0 °F - 23.0 °F 35% 30.11 in 10.0 mi NNW 8.1 mph - N/A   Clear
7:15 PM 48.2 °F - 26.6 °F 43% 30.11 in 10.0 mi NW 6.9 mph - N/A   Clear
7:35 PM 48.2 °F - 24.8 °F 40% 30.11 in 10.0 mi Calm Calm - N/A   Clear
7:50 PM 48.2 °F - 24.8 °F 40% 30.11 in 10.0 mi Calm Calm - N/A   Clear
8:55 PM 42.8 °F - 24.8 °F 49% 30.13 in 10.0 mi Calm Calm - N/A   Unknown
9:15 PM 39.2 °F - 28.4 °F 65% 30.13 in 10.0 mi Calm Calm - N/A   Clear
9:35 PM 39.2 °F - 26.6 °F 61% 30.14 in 10.0 mi Calm Calm - N/A   Clear
9:55 PM 39.2 °F - 26.6 °F 61% 30.14 in 10.0 mi Calm Calm - N/A   Clear
10:15 PM 41.0 °F - 24.8 °F 53% 30.14 in 10.0 mi Calm Calm - N/A   Clear
10:35 PM 39.2 °F - 24.8 °F 56% 30.14 in 10.0 mi Calm Calm - N/A   Clear
10:55 PM 39.2 °F - 24.8 °F 56% 30.13 in 10.0 mi Calm Calm - N/A   Clear
11:15 PM 35.6 °F - 26.6 °F 70% 30.13 in 10.0 mi Calm Calm - N/A   Clear
11:35 PM 35.6 °F 31.7 °F 28.4 °F 75% 30.13 in 10.0 mi ESE 4.6 mph - N/A   Clear
11:55 PM 33.8 °F - 30.2 °F 87% 30.13 in 10.0 mi Calm Calm - N/A   Clear